Location: Abloux
(46.4948°N, 1.4449°E)
Time: 07:36:05
(UTC+00:00)

Daily predictions for brighter satellites

Satellite Brightness Start Highest point End
(mag) Time Altitude Azimuth Time Altitude Azimuth Time Altitude Azimuth
Cosmos 2333 Rocket 3.3 20:19:06 10° SSE 20:23:42 26° ESE 20:28:20 10° NE
Cosmos 1850 Rocket 4.1 20:21:58 10° NNW 20:27:18 86° ENE 20:32:33 10° SSE
Cosmos 1758 3.5 20:23:22 10° NNW 20:27:21 77° W 20:31:17 10° S
NOSS 8 (A) 4.4 20:24:18 10° SW 20:27:41 73° NW 20:30:36 10° NE
Lacrosse 5 rocket 1.1 20:25:07 10° SSW 20:28:44 52° SE 20:32:16 10° ENE
Cosmos 1025 Rocket 4.0 20:25:08 10° SSE 20:28:54 29° E 20:32:41 10° NNE
ERS-1 Rocket 4.2 20:25:05 10° ESE 20:29:17 27° ENE 20:33:29 10° N
Cosmos 1844 4.0 20:24:35 10° NNW 20:30:05 57° ENE 20:35:36 10° SE
Spot 2 Rocket 4.2 20:29:12 10° SE 20:33:56 42° ENE 20:38:42 10° N
Cosmos 1727 Rocket 4.0 20:28:21 10° S 20:34:38 81° E 20:40:56 10° N
Cosmos 1331 Rocket 4.3 20:30:58 10° S 20:35:59 49° ESE 20:41:05 10° NNE
DNEPR-1 R/B 4.3 20:35:04 10° NNW 20:39:07 41° NE 20:43:17 10° ESE
FALCON 9 DEB 3.2 20:37:37 10° SW 20:40:34 42° SE 20:43:30 10° ENE
CENTAUR R/B 4.0 20:36:22 10° WSW 20:42:15 45° NW 20:49:15 10° NE
Cosmos 1726 3.9 20:39:18 10° NNW 20:42:30 30° W 20:45:43 10° SSW
KORONAS-FOTON 3.8 20:39:16 10° S 20:43:01 67° E 20:46:47 10° NNE
CARTOSAT-1 4.2 20:40:29 10° SE 20:44:34 43° ENE 20:48:40 10° N
SL-14 R/B 4.5 20:41:46 10° SSE 20:45:08 26° E 20:48:31 10° NNE
Terra 3.2 20:41:43 10° ESE 20:45:36 26° ENE 20:49:30 10° N
Cosmos 2360 Rocket 2.2 20:40:46 10° SSW 20:46:24 79° ESE 20:52:04 10° NNE
SPOT 1/Viking Rocket 3.6 20:41:23 10° SSE 20:46:30 75° ENE 20:51:39 10° N
Cosmos 1674 2.6 20:43:22 10° S 20:47:03 75° E 20:50:46 10° NNE
OBJECT-B 3.9 20:45:58 10° WSW 20:47:05 11° W 20:48:12 10° WNW
FALCON 9 DEB 3.3 20:45:37 10° SSW 20:48:31 38° SE 20:51:28 10° ENE
CZ-2C R/B 3.8 20:43:48 10° NNE 20:48:35 66° ESE 20:53:18 10° S
Cosmos 2322 Rocket 2.9 20:44:57 10° SW 20:50:35 61° WNW 20:56:16 10° NNE
SL-16 R/B 3.4 20:45:14 10° SW 20:50:42 49° WNW 20:56:13 10° NNE
FALCON 9 DEB 3.0 20:48:04 10° SW 20:51:05 49° SE 20:54:07 10° ENE
Cosmos 1953 2.3 20:47:32 10° N 20:51:38 85° ENE 20:55:41 10° S
SPOT 5 3.6 20:48:16 10° SE 20:52:58 41° ENE 20:57:29 10° N
USA 245 4.2 20:48:37 10° SSE 20:53:41 78° ENE 20:59:40 10° N
Cosmos 1975 Rocket 3.1 20:49:54 10° S 20:54:15 83° W 20:58:42 10° N
Cosmos 1802 Rocket 4.2 20:49:22 10° N 20:55:38 64° E 21:01:56 10° SSE
Cosmos 1459 Rocket 4.0 20:51:00 10° N 20:57:05 78° E 21:03:10 10° SSE
Cosmos 1300 3.6 21:00:07 10° N 21:03:37 33° ENE 21:06:19 15° SE
Lacrosse 5 4.1 21:01:52 10° W 21:04:47 15° WSW 21:07:42 10° SSW
Resurs 01 Rocket 2.9 21:01:31 10° SSW 21:05:37 38° W 21:09:46 10° NNW
Meteor 1-16 Rocket 4.4 21:01:21 10° NNW 21:06:47 71° W 21:12:03 10° S
Cosmos 1000 Rocket 4.5 21:03:56 10° S 21:10:05 88° E 21:16:16 10° N
Cosmos 1340 2.9 21:07:27 11° S 21:10:56 51° E 21:14:37 10° NNE
Cosmos 2322 3.7 21:08:32 10° S 21:14:05 62° ESE 21:19:41 10° NNE
Aureole 1 Rocket 4.5 21:09:05 10° NNW 21:15:10 68° WSW 21:22:44 10° S
COSMOS 2428 3.1 21:10:26 10° S 21:15:50 45° ESE 21:21:17 10° NE
Cosmos 2278 Rocket 3.4 21:11:01 10° NNW 21:16:05 32° NE 21:20:55 11° ESE
Cosmos 1844 Rocket 3.2 21:11:45 10° NW 21:17:17 55° WSW 21:22:30 11° S
Cosmos 389 Rocket 4.2 21:19:56 10° NNE 21:22:33 20° ENE 21:24:17 15° ESE
Cosmos 1867 4.0 21:19:04 10° NNW 21:24:29 55° NE 21:28:54 15° ESE
ATLAS 2A CENTAUR R/B 4.4 21:20:33 10° SW 21:25:06 13° SSW 21:27:33 11° S
Cosmos 1864 Rocket 4.5 21:19:53 10° N 21:26:06 79° E 21:31:18 15° SSE
Cosmos 968 Rocket 3.7 21:24:45 10° NNW 21:29:50 61° ENE 21:33:29 19° SE
Cosmos 1626 2.9 21:30:18 10° SSW 21:33:54 51° WNW 21:37:32 10° N
Cosmos 1486 Rocket 4.4 21:30:11 10° NNW 21:35:18 52° ENE 21:38:52 19° SE
Cosmos 1544 Rocket 4.2 21:31:06 10° NNW 21:35:28 53° W 21:39:23 12° S
Cosmos 2123 Rocket 4.0 21:30:17 10° S 21:36:35 88° E 21:42:57 10° N
Cosmos 2061 Rocket 4.1 21:30:52 10° N 21:37:20 83° W 21:42:50 15° S
Meteor 2-10 Rocket 3.9 21:34:32 10° N 21:39:28 48° ENE 21:42:36 21° SE
Uosat 12 SS-18 rocket 4.2 21:36:05 10° SSW 21:40:20 61° ESE 21:45:16 10° NE
Cosmos 1943 Rocket 4.5 21:38:18 10° N 21:41:02 14° NE 21:43:44 10° ENE
Cosmos 2233 Rocket 4.1 21:34:58 10° N 21:41:07 66° ENE 21:45:35 19° SSE
ARIANE 5 R/B 3.3 21:38:34 14° S 21:42:15 52° W 21:46:40 10° NNW
Cosmos 1346 Rocket 3.3 21:47:04 25° SSE 21:48:57 43° E 21:52:47 10° NNE
Cosmos 405 3.7 21:48:09 10° NNW 21:51:29 46° W 21:53:33 20° SSW
ATLAS CENTAUR R/B 2.4 21:47:45 10° NW 21:51:51 40° WSW 21:54:30 20° S
Cosmos 1980 4.4 21:51:14 21° SSE 21:54:14 36° ESE 21:59:24 10° NE
BREEZE-M DEB (TANK) 4.0 21:42:01 10° SW 21:54:58 44° SSE 21:58:50 10° E
ATLAS 3B R/B 2.8 21:49:38 10° SW 21:56:12 75° NW 22:03:00 10° NE
SL-4 R/B 2.2 21:54:32 10° SW 21:58:32 44° SE 22:02:14 10° ENE
FALCON 9 DEB 3.6 21:57:28 10° WSW 22:00:32 56° NNW 22:03:38 10° NE
Cosmos 2219 Rocket 2.6 22:00:16 10° SW 22:05:55 65° WNW 22:11:35 10° NNE
Meteor 2-5 Rocket 3.9 22:01:11 11° SSW 22:06:25 71° WNW 22:12:03 10° N
Cosmos 2333 Rocket 2.9 22:01:58 10° SW 22:07:37 56° WNW 22:13:15 10° NNE
ERS-1 Rocket 3.8 22:04:07 16° SSW 22:07:51 43° W 22:12:41 10° NNW
Lacrosse 5 rocket 3.2 22:04:44 10° W 22:07:58 29° NNW 22:11:09 10° NE
Cosmos 1607 4.2 22:02:04 10° NNW 22:08:28 66° NE 22:12:53 20° SE
Cosmos 1536 Rocket 4.5 22:05:19 11° SSW 22:09:31 47° WNW 22:13:50 10° N
Cosmos 2228 3.0 22:07:31 10° N 22:11:58 87° E 22:14:06 30° S
Iridium 2 4.2 22:12:19 33° SE 22:13:26 44° E 22:17:01 10° NNE
FALCON 9 DEB 4.5 22:13:17 10° W 22:16:12 37° NNW 22:19:07 10° NE
USA 215 3.6 22:14:37 10° ENE 22:20:46 42° SE 22:25:28 17° SSW
Terra 2.7 22:20:12 20° SSW 22:23:08 42° W 22:27:40 10° NNW
FALCON 9 DEB 4.4 22:21:16 10° W 22:24:14 39° NNW 22:27:12 10° NE
SL-16 R/B 3.5 22:23:55 20° ESE 22:25:14 22° E 22:29:28 10° NE
Cosmos 2237 Rocket 2.2 22:23:45 25° S 22:27:00 61° ESE 22:32:33 10° NNE
Cosmos 1455 2.2 22:25:03 10° N 22:28:52 65° E 22:29:59 41° SE
Cosmos 1184 Rocket 3.2 22:29:49 43° ESE 22:30:03 44° E 22:33:10 10° NNE
Cosmos 1464 Rocket 4.3 22:24:36 10° N 22:30:55 60° ENE 22:34:26 27° SSE
H-2A R/B 4.3 22:29:29 10° N 22:33:26 46° WNW 22:36:19 17° SW
Cosmos 1503 Rocket 4.0 22:29:58 10° NNW 22:35:24 85° WSW 22:37:58 32° SSE
Cosmos 2369 Rocket 4.5 22:31:31 10° N 22:35:24 18° NE 22:39:16 10° E
Cosmos 192 4.5 22:33:47 33° SSE 22:35:46 56° ESE 22:40:36 10° NNE
Meteor 1-24 Rocket 4.5 22:33:33 12° SW 22:38:17 47° WNW 22:43:37 10° N
GEOS 3 Rocket 3.9 22:38:08 22° ESE 22:41:35 66° NE 22:46:53 10° NW
ATLAS CENTAUR R/B 3.4 22:40:45 30° S 22:43:04 49° ESE 22:53:49 10° NE
USA 267 3.8 22:48:34 10° ESE 22:54:57 58° NNE 23:01:21 10° NW
Okean 1-7 Rocket 3.6 22:54:15 42° SSE 22:55:38 67° E 23:00:03 10° NNE
Cosmos 389 Rocket 4.1 22:54:19 10° NW 22:57:10 25° W 22:58:04 22° WSW
BREEZE-M DEB (TANK) 3.1 22:55:46 10° W 22:58:54 64° N 23:07:26 10° ENE
COSMOS 2428 4.3 22:55:04 10° WSW 23:00:16 34° NW 23:05:29 10° NNE
Cosmos 2278 Rocket 2.7 22:54:57 10° NW 23:00:21 48° WSW 23:02:45 30° SSW
Cosmos 1726 Rocket 4.3 22:58:03 10° NNW 23:02:17 44° W 23:03:59 30° SW
Cosmos 2297 4.3 22:57:25 10° NNW 23:02:55 51° ENE 23:06:11 24° ESE
Cosmos 2058 Rocket 3.1 22:58:33 10° NNW 23:03:00 71° W 23:04:24 42° SSW
Cosmos 2034 Rocket 4.0 23:00:53 10° N 23:07:06 78° E 23:10:01 33° SSE
Centaur D AC-29 4.5 23:05:14 10° WSW 23:07:22 11° SW 23:09:02 10° SW
NOSS 0 Rocket 4.5 23:01:59 10° SW 23:08:05 58° WNW 23:14:16 10° NNE
SJ 16-02 2.0 23:11:37 10° N 23:15:51 46° ENE 23:17:27 31° ESE
Meteor 1-21 Rocket 4.3 23:14:29 31° SSW 23:17:19 77° WNW 23:23:05 10° N
Cosmos 1777 Rocket 4.0 23:15:38 10° NNW 23:20:57 82° WSW 23:22:57 39° SSE
Spot 4 4.2 23:20:17 36° SSW 23:21:54 52° W 23:26:35 10° NNW
GP-B 3.8 23:20:37 10° NNE 23:24:52 43° E 23:26:01 35° SE
Cosmos 1943 Rocket 2.5 23:20:32 10° NNW 23:25:59 60° ENE 23:28:53 28° SE
Meteor 1-4 Rocket 2.2 23:22:53 10° NNW 23:26:23 87° WSW 23:26:36 77° S
Cosmos 1892 4.3 23:30:16 22° E 23:30:46 22° E 23:33:50 10° NE
Cosmos 1441 Rocket 3.9 23:29:44 36° WSW 23:30:47 47° WNW 23:34:30 10° N
MTI 4.0 23:29:44 10° NNE 23:32:27 57° ENE 23:32:27 57° ENE
ALOS 2 2.7 23:35:17 46° SSW 23:36:23 62° W 23:40:45 10° NNW
Tsikada Rocket 3.9 23:34:13 35° S 23:37:01 83° E 23:43:13 10° N
SL-4 R/B 2.6 23:34:11 10° W 23:38:06 52° NNW 23:41:45 10° ENE
Lacrosse 4 Rocket 4.5 23:38:38 10° NNE 23:39:32 11° NE 23:40:25 10° NE
USA 229 DEB 4.0 23:38:45 34° SSE 23:40:55 45° ESE 23:47:17 10° NE
USA 229 4.0 23:38:53 34° SSE 23:41:01 45° ESE 23:47:23 10° NE
Lacrosse 5 rocket 4.3 23:45:45 10° NW 23:47:59 16° N 23:50:14 10° NE
NOSS 3-1 (C) 3.1 23:46:44 37° SSW 23:48:57 74° SE 23:55:12 10° NE
Cosmos 1626 Rocket 4.0 23:49:24 37° SW 23:50:50 54° WNW 23:55:12 10° N
Cosmos 724 4.5 23:46:00 10° NW 23:52:04 61° WSW 23:54:20 37° S
Cosmos 1408 3.7 23:53:09 30° ESE 23:53:30 31° E 23:56:47 10° NNE
Elektron 1 4.1 23:51:14 10° NW 23:53:44 55° W 23:53:44 55° W
OPS 6432 4.2 23:51:57 10° NW 23:54:58 84° WSW 23:54:58 84° WSW
Cosmos 1825 4.0 23:54:28 19° ESE 23:55:05 20° E 23:57:51 10° NE
